This is the latest recevied weather packets stored in our database for station/object DL3MEB-6. If no packets are shown the sender has not sent any weather packets the latest 10 day(s).
| Time | Temp. | Humidity | Pressure | Rain* | Wind** | Luminosity | Snow |
|---|---|---|---|---|---|---|---|
| 1777880665 | 17.22° C | 43% | 1013.5 hPa | 0 mm | - | - | - |
| 1777879762 | 16.67° C | 44% | 1013.6 hPa | 0 mm | - | - | - |
| 1777878857 | 16.67° C | 49% | 1013.5 hPa | 0 mm | - | - | - |
| 1777877949 | 16.11° C | 51% | 1013.5 hPa | 0 mm | - | - | - |
| 1777877049 | 15.56° C | 53% | 1013.4 hPa | 0 mm | - | - | - |
| 1777876139 | 15° C | 56% | 1013.5 hPa | 0 mm | - | - | - |
| 1777875227 | 15° C | 58% | 1013.4 hPa | 0 mm | - | - | - |
| 1777874320 | 14.44° C | 59% | 1013.4 hPa | 0 mm | - | - | - |
| 1777873417 | 14.44° C | 60% | 1013.5 hPa | 0 mm | - | - | - |
| 1777872503 | 13.89° C | 61% | 1013.7 hPa | 0 mm | - | - | - |
| 1777871596 | 13.89° C | 61% | 1013.2 hPa | 0 mm | - | - | - |
| 1777870696 | 13.89° C | 61% | 1013.4 hPa | 0 mm | - | - | - |
| 1777869796 | 13.89° C | 60% | 1013.2 hPa | 0 mm | - | - | - |
| 1777868887 | 13.89° C | 59% | 1013.3 hPa | 0 mm | - | - | - |
| 1777867982 | 13.89° C | 58% | 1013.2 hPa | 0 mm | - | - | - |
| 1777867079 | 14.44° C | 57% | 1013.1 hPa | 0 mm | - | - | - |
| 1777866172 | 14.44° C | 56% | 1013.2 hPa | 0 mm | - | - | - |
| 1777865269 | 14.44° C | 55% | 1013.2 hPa | 0 mm | - | - | - |
| 1777864367 | 14.44° C | 55% | 1013.2 hPa | 0 mm | - | - | - |
| 1777863451 | 14.44° C | 54% | 1013.3 hPa | 0 mm | - | - | - |
| 1777862540 | 14.44° C | 53% | 1013.3 hPa | 0 mm | - | - | - |
| 1777861633 | 15° C | 52% | 1013.3 hPa | 0 mm | - | - | - |
| 1777860730 | 15° C | 51% | 1012.9 hPa | 0 mm | - | - | - |
| 1777859827 | 15° C | 50% | 1013 hPa | 0 mm | - | - | - |
| 1777858917 | 15.56° C | 50% | 1012.9 hPa | 0 mm | - | - | - |
* Rain latest hour (hover to see other rain measurements)
** Current wind speed in m/s (hover to see current wind gust speed)